This is the latest recevied weather packets stored in our database for station/object KB9MLJ. If no packets are shown the sender has not sent any weather packets the latest 10 day(s).
| Time | Temp. | Humidity | Pressure | Rain* | Wind** | Luminosity | Snow |
|---|---|---|---|---|---|---|---|
| 1777953845 | 13.33° C | 99% | 1002 hPa | 0 mm | - | 0 W/m² | - |
| 1777953541 | 13.33° C | 99% | 1001.6 hPa | 0.25 mm | - | 0 W/m² | - |
| 1777953237 | 13.33° C | 99% | 1002 hPa | 0.25 mm | - | 0 W/m² | - |
| 1777952935 | 13.33° C | 99% | 1001.6 hPa | 0.25 mm | - | 0 W/m² | - |
| 1777952631 | 13.33° C | 99% | 1002 hPa | 0.25 mm | - | 0 W/m² | - |
| 1777952329 | 13.33° C | 99% | 1002.3 hPa | 0.25 mm | - | 0 W/m² | - |
| 1777952025 | 13.33° C | 99% | 1002.3 hPa | 0.25 mm | - | 0 W/m² | - |
| 1777951724 | 13.33° C | 99% | 1002.3 hPa | 0 mm | - | 0 W/m² | - |
| 1777951420 | 13.33° C | 99% | 1002.3 hPa | 0 mm | - | 0 W/m² | - |
| 1777951117 | 13.33° C | 99% | 1002.3 hPa | 0 mm | - | 0 W/m² | - |
| 1777950813 | 13.33° C | 99% | 1002.3 hPa | 0 mm | - | 0 W/m² | - |
| 1777950511 | 13.33° C | 99% | 1002 hPa | 0 mm | - | 0 W/m² | - |
| 1777950206 | 13.33° C | 98% | 1002 hPa | 0 mm | - | 0 W/m² | - |
| 1777949902 | 13.33° C | 97% | 1001.3 hPa | 4.32 mm | - | 0 W/m² | - |
| 1777949600 | 13.33° C | 97% | 1001.3 hPa | 4.06 mm | - | 0 W/m² | - |
| 1777949298 | 13.33° C | 97% | 1001.6 hPa | 4.06 mm | - | 0 W/m² | - |
| 1777948996 | 13.89° C | 97% | 1002 hPa | 4.06 mm | - | 0 W/m² | - |
| 1777948693 | 13.89° C | 96% | 1001 hPa | 4.06 mm | - | 0 W/m² | - |
| 1777948389 | 14.44° C | 96% | 1002.3 hPa | 4.06 mm | - | 0 W/m² | - |
| 1777948087 | 14.44° C | 95% | 1003 hPa | 2.79 mm | - | 0 W/m² | - |
| 1777947784 | 14.44° C | 95% | 1002.6 hPa | 1.78 mm | - | 0 W/m² | - |
| 1777947481 | 13.89° C | 95% | 1002 hPa | 0.76 mm | - | 0 W/m² | - |
| 1777947177 | 14.44° C | 94% | 1002.3 hPa | 0.25 mm | - | 0 W/m² | - |
| 1777946873 | 14.44° C | 94% | 1002 hPa | 0.25 mm | - | 0 W/m² | - |
| 1777946568 | 14.44° C | 93% | 1002.3 hPa | 0 mm | - | 0 W/m² | - |
* Rain latest hour (hover to see other rain measurements)
** Current wind speed in m/s (hover to see current wind gust speed)